Weather History for Lynchburg, VA

Change the Weather History Date:

Saturday, February 15, 2014

  Actual Average Record
Temperature  
Mean Temperature 35 °F 38 °F  
Max Temperature 42 °F 49 °F 77 °F (1989)
Min Temperature 27 °F 27 °F 1 °F (1899)
Degree Days  
Heating Degree Days 30 27  
Month to date heating degree days 436 421  
Since 1 July heating degree days 3178 3093  
Cooling Degree Days 0 0  
Month to date cooling degree days 0 0  
Year to date cooling degree days 0 0  
Moisture  
Dew Point 24 °F    
Average Humidity 70    
Maximum Humidity 100    
Minimum Humidity 40    
Precipitation  
Precipitation 0.20 in 0.10 in 1.05 in (1964)
Month to date precipitation 3.42 1.57  
Year to date precipitation 6.69 4.71  
Snow  
Snow 0.00 in - - ()
Month to date snowfall 10.0  
Since 1 July snowfall 12.0  
Snow Depth -    
Sea Level Pressure  
Sea Level Pressure 29.75 in    
Wind  
Wind Speed 7 mph (WNW)    
Max Wind Speed 17 mph    
Max Gust Speed 28 mph    
Visibility 8 miles    
Events Rain , Snow    
T = Trace of Precipitation, MM = Missing Value Source: NWS Daily Summary

Daily Weather History Graph

Daily Weather History Graph

Search for Another Location

Airport:

Trip Planner

Search our weather history database for the weather conditions in past years. The results will help you decide how hot, cold, wet, or windy it might be!

Date:

Astronomy

Feb. 15, 2014 Rise Set
Actual Time 7:05 AM EST 5:56 PM EST
Civil Twilight 6:39 AM EST 6:23 PM EST
Nautical Twilight 6:08 AM EST 6:53 PM EST
Astronomical Twilight 5:38 AM EST 7:24 PM EST
Moon 6:52 PM EST (2/15) 7:05 AM EST (2/15)
Length of Visible Light 11h 44m
Length of Day
10h 50m
Full, 100% of the Moon is Illuminated
Feb 15
Full
Feb 22
Last Quarter
Mar 1
New
Mar 8
First Quarter
Mar 16
Full

Hourly Weather History & Observations

Time (EST) Temp. Windchill Dew Point Humidity Pressure Visibility Wind Dir Wind Speed Gust Speed Precip Events Conditions
12:54 AM 37.9 °F - 30.0 °F 73% 29.65 in 10.0 mi Calm Calm - 0.00 in Rain Light Rain
1:54 AM 35.1 °F - 30.9 °F 85% 29.65 in 10.0 mi Calm Calm - 0.00 in Rain Light Rain
2:54 AM 34.0 °F 31.0 °F 32.0 °F 92% 29.62 in 10.0 mi North 3.5 mph - 0.00 in   Overcast
3:54 AM 36.0 °F 32.1 °F 32.0 °F 86% 29.60 in 10.0 mi East 4.6 mph - 0.01 in Rain Light Rain
4:54 AM 37.0 °F 34.5 °F 33.1 °F 86% 29.60 in 9.0 mi South 3.5 mph - 0.03 in Rain Light Rain
5:54 AM 35.1 °F 32.2 °F 35.1 °F 100% 29.59 in 4.0 mi NNW 3.5 mph - 0.04 in Rain Light Rain
6:54 AM 34.0 °F 28.8 °F 34.0 °F 100% 29.60 in 5.0 mi North 5.8 mph - 0.06 in Rain Light Rain
7:34 AM 33.8 °F 27.7 °F 33.8 °F 100% 29.58 in 3.0 mi North 6.9 mph - 0.03 in Rain Light Rain
7:40 AM 33.8 °F 27.0 °F 33.8 °F 100% 29.59 in 2.0 mi North 8.1 mph - 0.04 in Snow Light Snow
7:54 AM 34.0 °F 27.2 °F 33.1 °F 96% 29.60 in 4.0 mi NNE 8.1 mph - 0.05 in Rain Light Rain
8:10 AM 33.8 °F 27.0 °F 33.8 °F 100% 29.58 in 5.0 mi NNE 8.1 mph - 0.00 in Rain Light Rain
8:54 AM 35.1 °F 32.2 °F 34.0 °F 96% 29.62 in 5.0 mi Variable 3.5 mph - 0.00 in Rain Light Rain
9:54 AM 37.0 °F 33.3 °F 35.1 °F 93% 29.63 in 8.0 mi WNW 4.6 mph - 0.01 in   Overcast
10:54 AM 41.0 °F 34.7 °F 30.0 °F 65% 29.63 in 10.0 mi NW 10.4 mph 23.0 mph N/A   Mostly Cloudy
11:54 AM 42.1 °F 36.1 °F 24.1 °F 49% 29.66 in 10.0 mi NW 10.4 mph 24.2 mph N/A   Partly Cloudy
12:54 PM 41.0 °F 33.9 °F 19.9 °F 43% 29.70 in 10.0 mi NW 12.7 mph 27.6 mph N/A   Partly Cloudy
1:54 PM 37.9 °F 29.2 °F 18.0 °F 45% 29.74 in 10.0 mi WNW 15.0 mph 26.5 mph N/A   Clear
2:54 PM 37.9 °F 31.5 °F 16.0 °F 41% 29.78 in 10.0 mi West 9.2 mph 16.1 mph N/A   Clear
3:54 PM 37.0 °F 30.4 °F 15.1 °F 41% 29.83 in 10.0 mi West 9.2 mph 24.2 mph N/A   Clear
4:54 PM 36.0 °F 28.5 °F 14.0 °F 41% 29.87 in 10.0 mi WNW 10.4 mph 18.4 mph N/A   Clear
5:54 PM 33.1 °F 28.7 °F 12.9 °F 43% 29.92 in 10.0 mi SW 4.6 mph - N/A   Clear
6:54 PM 30.0 °F 21.7 °F 12.9 °F 49% 29.97 in 10.0 mi West 9.2 mph 16.1 mph N/A   Clear
7:54 PM 28.9 °F 21.9 °F 12.9 °F 51% 29.99 in 10.0 mi West 6.9 mph - N/A   Clear
8:54 PM 28.0 °F 22.8 °F 12.0 °F 51% 30.02 in 10.0 mi WSW 4.6 mph - N/A   Clear
9:54 PM 28.0 °F 22.8 °F 12.9 °F 53% 30.03 in 10.0 mi WSW 4.6 mph - N/A   Clear
10:54 PM 27.0 °F 20.5 °F 12.9 °F 56% 30.04 in 10.0 mi WSW 5.8 mph - N/A   Clear
11:54 PM 27.0 °F 20.5 °F 12.9 °F 56% 30.03 in 10.0 mi West 5.8 mph - N/A   Clear